Location: Unspecified
(43.8044°N, 11.0278°E)
Time: 01:49:00
(UTC+02:00)

Resurs 1-4 Rocket - Visible Passes

Search period start: 30 September 2016 00:00
Search period end: 10 October 2016 00:00
Orbit: 800 x 814 km, 98.5° (Epoch: 29 September)

Date Brightness Start Highest point End Pass type
(mag) Time Alt. Az. Time Alt. Az. Time Alt. Az.
30 Sep 5.0 02:34:50 10° ENE 02:34:58 10° ENE 02:34:58 10° ENE visible
30 Sep 3.0 04:12:31 10° NNE 04:16:03 43° N 04:16:03 43° N visible
30 Sep 4.0 05:54:41 10° NNW 05:56:51 13° WNW 05:57:07 12° WNW visible
01 Oct 3.5 03:48:01 10° NNE 03:51:05 34° NNE 03:51:05 34° NNE visible
01 Oct 3.6 05:28:56 10° NNW 05:32:10 19° NW 05:32:10 19° NW visible
02 Oct 4.1 03:23:43 10° NNE 03:26:07 24° NE 03:26:07 24° NE visible
02 Oct 3.3 05:03:47 10° N 05:07:12 28° NW 05:07:12 28° NW visible
03 Oct 4.7 02:59:43 10° NE 03:01:10 16° NE 03:01:10 16° NE visible
03 Oct 3.1 04:38:54 10° N 04:42:14 35° NNW 04:42:14 35° NNW visible
04 Oct 3.3 04:14:13 10° N 04:17:17 36° N 04:17:17 36° N visible
04 Oct 4.0 05:56:33 10° NW 05:58:21 12° NW 05:58:21 12° NW visible
05 Oct 3.8 03:49:41 10° NNE 03:52:19 30° NNE 03:52:19 30° NNE visible
05 Oct 3.7 05:30:41 10° NNW 05:33:24 18° NW 05:33:24 18° NW visible
06 Oct 4.3 03:25:22 10° NNE 03:27:21 21° NE 03:27:21 21° NE visible
06 Oct 3.5 05:05:30 10° N 05:08:26 25° NW 05:08:26 25° NW visible
07 Oct 4.8 03:01:20 10° NE 03:02:24 14° NE 03:02:24 14° NE visible
07 Oct 3.4 04:40:36 10° N 04:43:28 30° NNW 04:43:28 30° NNW visible
08 Oct 3.6 04:15:54 10° N 04:18:30 30° N 04:18:30 30° N visible
08 Oct 4.1 05:58:25 10° NW 05:59:35 11° NW 05:59:35 11° NW visible
09 Oct 4.0 03:51:21 10° NNE 03:53:33 25° NNE 03:53:33 25° NNE visible
09 Oct 3.8 05:32:26 10° NNW 05:34:37 17° NW 05:34:37 17° NW visible
